Weather History for K04W - March, 2014

Change the Weather History Date:

Wednesday, March 19, 2014

  Actual Average (KJMR) Record (KJMR)
Temperature  
Mean Temperature 30 °F -  
Max Temperature 33 °F 39 °F 73 °F (2012)
Min Temperature 21 °F 17 °F -9 °F (1944)
Degree Days  
Heating Degree Days 36    
Moisture  
Dew Point 23 °F    
Average Humidity 76    
Maximum Humidity 93    
Minimum Humidity 60    
Precipitation  
Precipitation 0.00 in - - ()
Sea Level Pressure  
Sea Level Pressure 29.86 in    
Wind  
Wind Speed 8 mph (NNW)    
Max Wind Speed 15 mph    
Max Gust Speed 20 mph    
Visibility 9 miles    
Events Snow    
Averages and records for this station are not official NWS values.
T = Trace of Precipitation, MM = Missing Value Source: NWS Daily Summary

Daily Weather History Graph

Daily Weather History Graph

Search for Another Location

Airport or City:

Trip Planner

Search our weather history database for the weather conditions in past years. The results will help you decide how hot, cold, wet, or windy it might be!

Date:

Astronomy

Mar. 19, 2014 Rise Set
Actual Time 7:16 AM CDT 7:22 PM CDT
Civil Twilight 6:46 AM CDT 7:52 PM CDT
Nautical Twilight 6:11 AM CDT 8:27 PM CDT
Astronomical Twilight 5:35 AM CDT 9:03 PM CDT
Moon 10:53 PM CDT (3/19) 8:32 AM CDT (3/19)
Length of Visible Light 13h 06m
Length of Day
12h 06m
Waning Gibbous, 91% of the Moon is Illuminated
Mar 19
Waning Gibbous
Mar 23
Last Quarter
Mar 30
New
Apr 7
First Quarter
Apr 15
Full

Hourly Weather History & Observations

Time (CDT) Temp. Windchill Dew Point Humidity Pressure Visibility Wind Dir Wind Speed Gust Speed Precip Events Conditions
12:02 AM 28.4 °F 19.7 °F 26.6 °F 93% 29.83 in 2.5 mi North 9.2 mph - N/A Snow Light Snow
12:23 AM 28.4 °F 20.4 °F 26.6 °F 93% 29.83 in 2.0 mi North 8.1 mph - N/A Snow Light Snow
12:43 AM 28.4 °F 20.4 °F 26.6 °F 93% 29.82 in 3.0 mi North 8.1 mph - N/A Snow Light Snow
1:02 AM 28.4 °F 19.7 °F 26.6 °F 93% 29.82 in 3.0 mi North 9.2 mph - N/A Snow Light Snow
1:23 AM 28.4 °F 19.7 °F 26.6 °F 93% 29.81 in 3.0 mi North 9.2 mph - N/A Snow Light Snow
1:43 AM 28.4 °F 19.7 °F 26.6 °F 93% 29.81 in 5.0 mi North 9.2 mph - N/A Snow Light Snow
2:02 AM 26.6 °F 17.5 °F 24.8 °F 93% 29.81 in 7.0 mi North 9.2 mph - N/A Snow Light Snow
2:23 AM 26.6 °F 16.8 °F 24.8 °F 93% 29.81 in 10.0 mi North 10.4 mph - N/A   Overcast
2:43 AM 26.6 °F 16.8 °F 24.8 °F 93% 29.81 in 10.0 mi North 10.4 mph - N/A   Overcast
3:02 AM 26.6 °F 16.8 °F 24.8 °F 93% 29.81 in 10.0 mi North 10.4 mph - N/A   Overcast
3:23 AM 26.6 °F 16.8 °F 24.8 °F 93% 29.81 in 10.0 mi North 10.4 mph - N/A   Overcast
3:43 AM 26.6 °F 17.5 °F 23.0 °F 86% 29.81 in 7.0 mi North 9.2 mph 16.1 mph N/A Snow Light Snow
4:03 AM 26.6 °F 17.5 °F 23.0 °F 86% 29.80 in 7.0 mi North 9.2 mph - N/A Snow Light Snow
4:23 AM 26.6 °F 17.5 °F 23.0 °F 86% 29.80 in 10.0 mi North 9.2 mph - N/A Snow Light Snow
4:43 AM 26.6 °F 19.1 °F 23.0 °F 86% 29.80 in 10.0 mi North 6.9 mph 11.5 mph N/A   Overcast
5:03 AM 26.6 °F 16.8 °F 23.0 °F 86% 29.81 in 10.0 mi North 10.4 mph - N/A   Overcast
5:23 AM 26.6 °F 16.8 °F 23.0 °F 86% 29.81 in 10.0 mi North 10.4 mph - N/A   Overcast
5:43 AM 26.6 °F 17.5 °F 23.0 °F 86% 29.81 in 10.0 mi North 9.2 mph - N/A   Overcast
6:03 AM 28.4 °F 19.7 °F 23.0 °F 80% 29.81 in 10.0 mi North 9.2 mph - N/A   Overcast
6:23 AM 28.4 °F 20.4 °F 23.0 °F 80% 29.82 in 10.0 mi North 8.1 mph - N/A   Overcast
6:42 AM 28.4 °F 19.7 °F 23.0 °F 80% 29.82 in 10.0 mi NNW 9.2 mph - N/A   Overcast
7:03 AM 28.4 °F 21.2 °F 23.0 °F 80% 29.82 in 10.0 mi NNW 6.9 mph - N/A   Overcast
7:23 AM 28.4 °F 21.2 °F 23.0 °F 80% 29.83 in 10.0 mi NNW 6.9 mph - N/A   Overcast
7:42 AM 28.4 °F 24.6 °F 23.0 °F 80% 29.84 in 10.0 mi NW 3.5 mph - N/A   Overcast
8:03 AM 28.4 °F 23.3 °F 24.8 °F 86% 29.84 in 10.0 mi NW 4.6 mph - N/A   Overcast
8:23 AM 28.4 °F 23.3 °F 24.8 °F 86% 29.84 in 10.0 mi NW 4.6 mph - N/A   Overcast
8:42 AM 28.4 °F 23.3 °F 24.8 °F 86% 29.84 in 10.0 mi NW 4.6 mph - N/A   Overcast
9:03 AM 28.4 °F 23.3 °F 24.8 °F 86% 29.84 in 10.0 mi NW 4.6 mph - N/A   Overcast
9:23 AM 30.2 °F 23.4 °F 24.8 °F 80% 29.84 in 10.0 mi NW 6.9 mph - N/A   Overcast
9:43 AM 30.2 °F 22.6 °F 24.8 °F 80% 29.84 in 10.0 mi NW 8.1 mph - N/A   Overcast
10:03 AM 30.2 °F 22.6 °F 24.8 °F 80% 29.84 in 10.0 mi NNW 8.1 mph - N/A   Overcast
10:23 AM 30.2 °F 21.9 °F 24.8 °F 80% 29.85 in 10.0 mi NW 9.2 mph - N/A   Overcast
10:43 AM 32.0 °F 24.2 °F 24.8 °F 75% 29.85 in 10.0 mi NNW 9.2 mph - N/A   Overcast
11:03 AM 32.0 °F 23.0 °F 24.8 °F 75% 29.85 in 10.0 mi NNW 11.5 mph - N/A   Overcast
11:23 AM 32.0 °F 24.2 °F 24.8 °F 75% 29.85 in 10.0 mi NNW 9.2 mph - N/A   Overcast
11:43 AM 32.0 °F 22.5 °F 23.0 °F 69% 29.86 in 10.0 mi NNW 12.7 mph - N/A   Overcast
12:03 PM 32.0 °F 22.1 °F 23.0 °F 69% 29.86 in 10.0 mi NW 13.8 mph 18.4 mph N/A   Overcast
12:22 PM 32.0 °F 21.6 °F 24.8 °F 75% 29.86 in 10.0 mi NNW 15.0 mph 19.6 mph N/A   Overcast
12:43 PM 32.0 °F 21.6 °F 23.0 °F 69% 29.86 in 10.0 mi NNW 15.0 mph - N/A   Overcast
1:03 PM 32.0 °F 23.6 °F 23.0 °F 69% 29.86 in 10.0 mi NW 10.4 mph - N/A   Overcast
1:23 PM 32.0 °F 23.0 °F 23.0 °F 69% 29.87 in 10.0 mi NNW 11.5 mph 16.1 mph N/A   Overcast
1:43 PM 32.0 °F 24.2 °F 23.0 °F 69% 29.86 in 10.0 mi NNW 9.2 mph - N/A   Overcast
2:03 PM 32.0 °F 23.6 °F 21.2 °F 64% 29.86 in 10.0 mi NNW 10.4 mph - N/A   Overcast
2:23 PM 33.8 °F 26.4 °F 21.2 °F 60% 29.86 in 10.0 mi NNW 9.2 mph 16.1 mph N/A   Overcast
2:43 PM 33.8 °F 25.3 °F 21.2 °F 60% 29.86 in 10.0 mi NW 11.5 mph - N/A   Overcast
3:03 PM 33.8 °F 24.3 °F 21.2 °F 60% 29.86 in 10.0 mi NW 13.8 mph - N/A   Overcast
3:23 PM 33.8 °F 26.4 °F 21.2 °F 60% 29.86 in 10.0 mi NW 9.2 mph - N/A   Overcast
3:43 PM 33.8 °F 24.8 °F 21.2 °F 60% 29.86 in 10.0 mi NW 12.7 mph - N/A   Overcast
4:03 PM 33.8 °F 25.3 °F 21.2 °F 60% 29.86 in 10.0 mi NNW 11.5 mph - N/A   Overcast
4:23 PM 33.8 °F 25.8 °F 21.2 °F 60% 29.86 in 10.0 mi NNW 10.4 mph - N/A   Overcast
4:43 PM 33.8 °F 28.6 °F 21.2 °F 60% 29.86 in 10.0 mi WNW 5.8 mph - N/A   Overcast
5:03 PM 33.8 °F 27.7 °F 23.0 °F 65% 29.87 in 10.0 mi NW 6.9 mph - N/A   Overcast
5:23 PM 33.8 °F 28.6 °F 23.0 °F 65% 29.88 in 10.0 mi NW 5.8 mph - N/A   Overcast
5:43 PM 33.8 °F 29.6 °F 23.0 °F 65% 29.88 in 10.0 mi WNW 4.6 mph - N/A   Overcast
6:03 PM 33.8 °F 28.6 °F 23.0 °F 65% 29.89 in 10.0 mi WNW 5.8 mph - N/A   Overcast
6:23 PM 33.8 °F 27.7 °F 23.0 °F 65% 29.89 in 10.0 mi WNW 6.9 mph - N/A   Overcast
6:43 PM 33.8 °F 27.0 °F 23.0 °F 65% 29.90 in 10.0 mi WNW 8.1 mph - N/A   Overcast
7:03 PM 33.8 °F 29.6 °F 23.0 °F 65% 29.90 in 10.0 mi WNW 4.6 mph - N/A   Overcast
7:23 PM 33.8 °F 30.8 °F 23.0 °F 65% 29.91 in 10.0 mi NW 3.5 mph - N/A   Overcast
7:43 PM 33.8 °F 29.6 °F 23.0 °F 65% 29.91 in 10.0 mi NW 4.6 mph - N/A   Overcast
8:03 PM 33.8 °F 30.8 °F 23.0 °F 65% 29.91 in 10.0 mi NW 3.5 mph - N/A   Overcast
8:23 PM 33.8 °F 29.6 °F 23.0 °F 65% 29.91 in 10.0 mi NW 4.6 mph - N/A   Overcast
8:43 PM 32.0 °F 27.5 °F 23.0 °F 69% 29.92 in 10.0 mi NW 4.6 mph - N/A   Overcast
9:03 PM 32.0 °F 27.5 °F 23.0 °F 69% 29.92 in 10.0 mi NW 4.6 mph - N/A   Overcast
9:23 PM 32.0 °F 27.5 °F 23.0 °F 69% 29.93 in 10.0 mi NNW 4.6 mph - N/A   Overcast
9:43 PM 32.0 °F 27.5 °F 21.2 °F 64% 29.93 in 10.0 mi NW 4.6 mph - N/A   Overcast
10:03 PM 32.0 °F 27.5 °F 21.2 °F 64% 29.93 in 10.0 mi NW 4.6 mph - N/A   Overcast
10:23 PM 32.0 °F 28.7 °F 21.2 °F 64% 29.93 in 10.0 mi NW 3.5 mph - N/A   Overcast
10:43 PM 30.2 °F - 21.2 °F 69% 29.93 in 10.0 mi Calm Calm - N/A   Mostly Cloudy
11:03 PM 28.4 °F 24.6 °F 21.2 °F 74% 29.94 in 10.0 mi West 3.5 mph - N/A   Mostly Cloudy
11:23 PM 28.4 °F 24.6 °F 21.2 °F 74% 29.94 in 10.0 mi West 3.5 mph - N/A   Mostly Cloudy
11:43 PM 21.2 °F - 17.6 °F 86% 29.94 in 10.0 mi Calm Calm - N/A   Scattered Clouds